Regional Weather Roundup
Issued by NWS

Home | Current Version | Previous Version | Graphics & Text | Print | Product List | Glossary On
Versions: 1 2 3 4 5 6 7 8 9 10 11 12 13 14 15 16 17 18 19 20 21 22 23 24 25 26 27 28 29 30 31 32 33 34 35 36 37 38 39 40 41 42 43 44 45 46 47 48 49 50
000
ASUS43 KTOP 261959
RWRKS

WEATHER ROUNDUP FOR KANSAS
NATIONAL WEATHER SERVICE GOODLAND KS
300 PM CDT FRI AUG 26 2016

NOTE:  "FAIR" INDICATES FEW OR NO CLOUDS BELOW 12,000 FEET WITH NO
SIGNIFICANT WEATHER AND/OR OBSTRUCTIONS TO VISIBILITY.

KSZ001>006-013>018-027>032-041>047-262100-
NORTHWEST KANSAS

CITY           SKY/WX    TMP DP  RH WIND       PRES   REMARKS
GOODLAND       TSTM      65  60  84 S5        30.08F
HAYS           CLOUDY    72  57  60 SE3       30.06F
HILL CITY      CLOUDY    73  61  65 SE8       30.07F
RUSSELL        CLOUDY    69  64  84 S3        30.05F
$$

KSZ061>065-074>080-084>089-262100-
SOUTHWEST KANSAS

CITY           SKY/WX    TMP DP  RH WIND       PRES   REMARKS
DODGE CITY     MOSUNNY   77  62  59 S10       30.07F
ELKHART          N/A     80  60  50 S10         N/A
GARDEN CITY    PTSUNNY   78  61  55 SE10G16   30.05F
GREAT BEND     CLOUDY    73  61  64 S10       30.05F
LIBERAL        MOSUNNY   77  63  61 SE8G16    30.07F
$$

KSZ066>073-081>083-090>101-262100-
SOUTHEAST KANSAS

CITY           SKY/WX    TMP DP  RH WIND       PRES   REMARKS
CHANUTE        PTSUNNY   86  72  62 S6        30.03F
COFFEYVILLE    CLOUDY    87  71  58 S12G18    30.02F
HUTCHINSON     CLOUDY    80  65  59 SE9       30.05F
MEDICINE LODGE   N/A     77  66  68 SE3       30.05F
NEWTON         PTSUNNY   78  67  68 S5        30.05F
PARSONS        MOSUNNY   87  70  56 S9        30.04F
WICHITA INTL   PTSUNNY   81  66  60 S3        30.03F
WICHITA JABRA  PTSUNNY   81  67  62 S5        30.04F
WINFIELD       MOSUNNY   83  70  64 S5        30.04F
$$

KSZ007>012-019>026-033>040-048>060-102>105-262100-
NORTHEAST KANSAS

CITY           SKY/WX    TMP DP  RH WIND       PRES   REMARKS
CONCORDIA      CLOUDY    73  66  78 NE3       30.06F
EMPORIA        PTSUNNY   84  67  56 S16       30.04F
LAWRENCE       PTSUNNY   83  70  64 SE12      30.03F
MANHATTAN      PTSUNNY   81  68  64 S8        30.02F
OLATHE IND     PTSUNNY   81  69  67 SE3       30.06F
OLATHE EXE     PTSUNNY   80  70  71 S6        30.05F
SALINA         CLOUDY    76  66  71 SW5       30.05F
TOPEKA BILLARD MOSUNNY   80  72  76 E6        30.02F
TOPEKA FORBES  CLOUDY    83  68  60 SE12      30.02F
$$




USA.gov is the U.S. government's official web portal to all federal, state and local government web resources and services.